TimeCDT,TemperatureF,Dew PointF,Humidity,Sea Level PressureIn,VisibilityMPH,Wind Direction,Wind SpeedMPH,Gust SpeedMPH,PrecipitationIn,Events,Conditions,WindDirDegrees,DateUTC
12:52 AM,51.1,45.0,80,29.84,10.0,NNE,8.1,-,N/A,,Clear,20,2012-10-02 05:52:00
1:52 AM,50.0,45.0,83,29.86,10.0,North,6.9,-,N/A,,Clear,360,2012-10-02 06:52:00
2:52 AM,48.9,45.0,86,29.85,10.0,North,4.6,-,N/A,,Clear,360,2012-10-02 07:52:00
3:52 AM,48.0,46.0,93,29.85,10.0,NNW,8.1,-,N/A,,Clear,330,2012-10-02 08:52:00
4:52 AM,45.0,45.0,100,29.86,10.0,NNW,5.8,-,N/A,,Clear,330,2012-10-02 09:52:00
5:52 AM,46.0,46.0,100,29.88,9.0,North,8.1,-,N/A,,Clear,360,2012-10-02 10:52:00
6:52 AM,45.0,45.0,100,29.89,8.0,North,6.9,-,N/A,,Clear,350,2012-10-02 11:52:00
7:52 AM,46.4,46.4,100,29.90,6.0,NNW,6.9,-,N/A,,Clear,330,2012-10-02 12:52:00
8:52 AM,51.1,48.9,92,29.91,8.0,NNW,6.9,-,N/A,,Clear,340,2012-10-02 13:52:00
9:52 AM,57.0,48.9,74,29.92,10.0,NE,6.9,-,N/A,,Clear,50,2012-10-02 14:52:00
10:52 AM,61.0,48.9,64,29.91,10.0,ENE,6.9,-,N/A,,Clear,60,2012-10-02 15:52:00
11:52 AM,64.9,48.0,54,29.91,10.0,East,5.8,-,N/A,,Clear,100,2012-10-02 16:52:00
12:52 PM,70.0,46.9,44,29.89,10.0,Variable,5.8,-,N/A,,Clear,0,2012-10-02 17:52:00
1:52 PM,71.1,45.0,39,29.86,10.0,Calm,Calm,-,N/A,,Clear,0,2012-10-02 18:52:00
2:52 PM,72.0,44.1,37,29.85,10.0,West,3.5,-,N/A,,Clear,260,2012-10-02 19:52:00
3:52 PM,73.0,44.1,35,29.84,10.0,Variable,3.5,-,N/A,,Clear,0,2012-10-02 20:52:00
4:52 PM,73.0,44.1,35,29.84,10.0,Calm,Calm,-,N/A,,Clear,0,2012-10-02 21:52:00
5:52 PM,71.1,44.1,38,29.84,10.0,Calm,Calm,-,N/A,,Clear,0,2012-10-02 22:52:00
6:52 PM,66.9,44.1,44,29.86,10.0,Calm,Calm,-,N/A,,Clear,0,2012-10-02 23:52:00
7:52 PM,57.9,44.1,60,29.88,9.0,ESE,3.5,-,N/A,,Clear,110,2012-10-03 00:52:00
8:52 PM,59.0,44.6,59,29.88,10.0,ESE,3.5,-,N/A,,Clear,110,2012-10-03 01:52:00
9:52 PM,55.9,44.1,64,29.89,10.0,ESE,3.5,-,N/A,,Clear,110,2012-10-03 02:52:00
10:52 PM,54.0,44.1,69,29.90,8.0,East,3.5,-,N/A,,Clear,100,2012-10-03 03:52:00
11:52 PM,52.0,44.1,74,29.89,10.0,Calm,Calm,-,N/A,,Clear,0,2012-10-03 04:52:00